Content
SEND FEEDBACK

Daily
Averages
Monthly
Summary
United Kingdom

LONDON, ENGLAND


Home > Europe > United Kingdom > England
Elevation: 61 meters     Latitude: 51 09N     Longitude: 000 11W

WEATHER
 
SELECT A DAY
Number of Records: 298,720;   Date Range: 7/1/96 - 11/24/14
 
SHARE

PRINT THIS DATA

[ ← Previous Day ]
WEATHER ALMANAC - 16 NOVEMBER, 2013
[ Next Day → ]
[ °F ]   °C
Weather ElementAverageHighLow
Temperature4.8 °C10 °C (12:20 pm)-1 °C (5:20 am)
Dewpoint2.9 °C6 °C (8:20 pm)-1 °C (3:20 am)
Humidity88.1 %100 % (1:50 am)71 % (12:20 pm)
Barometer1031.5 hPa1033.2 hPa (12:50 am)1028.1 hPa (11:50 pm)
Wind Speed4.3 km/h13 km/h (1:50 pm)
Weather ElementAverage
Visibility7.9 km
Wind DirectionESE (106 °)

Weather ElementTotal
Precipitation---
Heating Degree Days13.8 (Base 18.3)
Averaged from 47 records on 16 November, 2013
WEATHER CONDITIONS BREAKOUT
WIND DIRECTION BREAKOUT
WEATHER BY HOUR - 16 NOVEMBER, 2013
[ °F ]   °C
Local TimeTemperatureDewpointHumidityBarometerVisibilityWind DirectionWind SpeedGust SpeedPrecipitationEventsConditions
12:50 AM1 °C0 °C93 %1033.2 hPa8 kmCalm
1:20 AM1 °C0 °C93 %1033.2 hPa6 kmCalm
1:50 AM0 °C0 °C100 %1033.2 hPa6.9 kmCalm
2:20 AM0 °C0 °C100 %1033.2 hPa6.9 kmCalm
2:50 AM0 °C0 °C100 %1033.2 hPa6 kmCalm
3:20 AM0 °C-1 °C93 %1033.2 hPa5 kmCalmMist
3:50 AM0 °C-1 °C93 %1033.2 hPa5 kmCalmHaze
4:20 AM0 °C-1 °C93 %1033.2 hPa5 kmCalmHaze
4:50 AM0 °C-1 °C93 %1032.2 hPa6 kmCalm
5:20 AM-1 °C-1 °C100 %1032.2 hPa5 kmCalmMist
5:50 AM-1 °C-1 °C100 %1032.2 hPa5 kmCalmMist
6:20 AM-1 °C-1 °C100 %1032.2 hPa6.9 kmSSW (210°)3.7 km/h
6:50 AM-1 °C-1 °C100 %1032.2 hPaVariable3.7 km/hClear
7:20 AM-1 °C-1 °C100 %1033.2 hPa6.9 kmCalm
7:50 AM-1 °C-1 °C100 %1033.2 hPa9 kmCalm
8:20 AM0 °C-1 °C93 %1033.2 hPa9 kmCalm
8:50 AM1 °C1 °C100 %1033.2 hPa9 kmCalm
9:20 AM3 °C1 °C87 %1033.2 hPaCalmClear
9:50 AM5 °C2 °C81 %1033.2 hPaCalmClear
10:20 AM6 °C3 °C81 %1033.2 hPaCalmClear
10:50 AM7 °C3 °C76 %1033.2 hPaVariable3.7 km/hClear
11:20 AM8 °C5 °C81 %1032.2 hPaVariable5.6 km/hClear
11:50 AM9 °C5 °C76 %1032.2 hPaVariable5.6 km/hClear
12:20 PM10 °C5 °C71 %1031.2 hPaVariable3.7 km/hClear
12:50 PM10 °C5 °C71 %1031.2 hPa10 kmWNW (300°)7.4 km/hPartly Cloudy
1:20 PM10 °C5 °C71 %1031.2 hPa10 kmWNW (300°)9.3 km/hPartly Cloudy
1:50 PM10 °C5 °C71 %1031.2 hPa10 kmNW (310°)13 km/hPartly Cloudy
2:20 PM9 °C5 °C76 %1031.2 hPa10 kmNW (320°)13 km/hPartly Cloudy
2:50 PM9 °C5 °C76 %1030.1 hPa10 kmNW (310°)13 km/hScattered Clouds
3:20 PM8 °C5 °C81 %1030.1 hPa10 kmNW (310°)11.1 km/hScattered Clouds
3:50 PM8 °C5 °C81 %1030.1 hPa10 kmNW (310°)11.1 km/hPartly Cloudy
4:20 PM7 °C4 °C81 %1030.1 hPa10 kmWNW (300°)9.3 km/hPartly Cloudy
4:50 PM7 °C5 °C87 %1030.1 hPa10 kmNW (320°)9.3 km/hPartly Cloudy
5:20 PM7 °C5 °C87 %1030.1 hPa10 kmNW (320°)7.4 km/hMostly Cloudy
5:50 PM7 °C5 °C87 %1030.1 hPa10 kmVariable5.6 km/hMostly Cloudy
6:20 PM8 °C5 °C81 %1030.1 hPa10 kmNW (320°)5.6 km/hMostly Cloudy
6:50 PM8 °C5 °C81 %1030.1 hPa10 kmVariable5.6 km/hMostly Cloudy
7:20 PM8 °C5 °C81 %1030.1 hPa10 kmVariable5.6 km/hMostly Cloudy
7:50 PM7 °C5 °C87 %1029.1 hPa10 kmVariable5.6 km/hMostly Cloudy
8:20 PM8 °C6 °C87 %1029.1 hPa9 kmVariable5.6 km/hMostly Cloudy
8:50 PM7 °C6 °C93 %1029.1 hPa8 kmNW (310°)5.6 km/hMostly Cloudy
9:20 PM7 °C6 °C93 %1029.1 hPa6.9 kmVariable5.6 km/hMostly Cloudy
9:50 PM7 °C6 °C93 %1029.1 hPa6 kmNW (320°)5.6 km/hMostly Cloudy
10:20 PM7 °C6 °C93 %1029.1 hPa6 kmNNW (330°)7.4 km/hMostly Cloudy
10:50 PM7 °C6 °C93 %1029.1 hPa5 kmNorth (350°)7.4 km/hHaze
11:20 PM7 °C6 °C93 %1029.1 hPa6 kmNNE (20°)5.6 km/hMostly Cloudy
11:50 PM7 °C6 °C93 %1028.1 hPa6 kmNNE (20°)5.6 km/hMostly Cloudy
Hourly data recorded from EGKK, located 0 kilometers away from London, England







STORIES FROM OUR PARTNERS